H1 CPF 2 NER 2022 1 13 9 013 01 glonass135 H2 1600801 9135 41330 2022 1 13 0 0 0 2022 1 16 23 45 0 900 1 1 0 0 0 1 H9 10 0 59592 0.00000 0 -6486926.874 12954412.712 -20969028.231 10 0 59592 900.00000 0 -7171601.479 10374680.876 -22149975.917 10 0 59592 1800.00000 0 -8089894.962 7742742.301 -22899803.682 10 0 59592 2700.00000 0 -9230170.012 5128553.440 -23204041.279 10 0 59592 3600.00000 0 -10568412.999 2599432.207 -23056906.222 10 0 59592 4500.00000 0 -12069119.860 217464.270 -22461405.828 10 0 59592 5400.00000 0 -13686681.255 -1962858.930 -21429267.378 10 0 59592 6300.00000 0 -15367208.512 -3896673.085 -19980698.568 10 0 59592 7200.00000 0 -17050723.466 -5550361.514 -18143983.724 10 0 59592 8100.00000 0 -18673620.177 -6902697.595 -15954924.275 10 0 59592 9000.00000 0 -20171295.257 -7945463.607 -13456134.867 10 0 59592 9900.00000 0 -21480836.596 -8683522.344 -10696209.248 10 0 59592 10800.00000 0 -22543658.004 -9134340.888 -7728772.395 10 0 59592 11700.00000 0 -23307969.685 -9326988.701 -4611437.437 10 0 59592 12600.00000 0 -23730981.403 -9300654.026 -1404687.808 10 0 59592 13500.00000 0 -23780746.521 -9102742.602 1829293.717 10 0 59592 14400.00000 0 -23437570.127 -8786639.929 5027826.509 10 0 59592 15300.00000 0 -22694922.726 -8409232.098 8128940.949 10 0 59592 16200.00000 0 -21559821.603 -8028290.015 11072571.617 10 0 59592 17100.00000 0 -20052664.005 -7699827.324 13801712.274 10 0 59592 18000.00000 0 -18206519.078 -7475543.063 16263510.812 10 0 59592 18900.00000 0 -16065907.726 -7400456.431 18410283.845 10 0 59592 19800.00000 0 -13685120.532 -7510832.827 20200432.180 10 0 59592 20700.00000 0 -11126142.902 -7832488.155 21599240.262 10 0 59592 21600.00000 0 -8456272.452 -8379542.677 22579544.964 10 0 59592 22500.00000 0 -5745526.220 -9153677.127 23122261.409 10 0 59592 23400.00000 0 -3063943.929 -10143923.100 23216755.930 10 0 59592 24300.00000 0 -478897.719 -11326997.717 22861059.029 10 0 59592 25200.00000 0 1947481.388 -12668170.136 22061913.772 10 0 59592 26100.00000 0 4160654.471 -14122625.391 20834657.994 10 0 59592 27000.00000 0 6115706.359 -15637270.325 19202941.486 10 0 59592 27900.00000 0 7778973.964 -17152907.743 17198282.321 10 0 59592 28800.00000 0 9129203.607 -18606689.080 14859469.546 10 0 59592 29700.00000 0 10158189.073 -19934743.777 12231822.415 10 0 59592 30600.00000 0 10870863.555 -21074875.439 9366319.303 10 0 59592 31500.00000 0 11284841.430 -21969211.337 6318612.424 10 0 59592 32400.00000 0 11429429.091 -22566693.130 3147946.944 10 0 59592 33300.00000 0 11344146.613 -22825302.764 -83994.494 10 0 59592 34200.00000 0 11076823.032 -22713928.225 -3314298.867 10 0 59592 35100.00000 0 10681346.469 -22213788.824 -6480057.153 10 0 59592 36000.00000 0 10215165.326 -21319358.228 -9519600.873 10 0 59592 36900.00000 0 9736647.631 -20038744.824 -12373715.268 10 0 59592 37800.00000 0 9302411.823 -18393512.196 -14986804.207 10 0 59592 38700.00000 0 8964743.528 -16417946.418 -17307982.921 10 0 59592 39600.00000 0 8769209.040 -14157800.588 -19292076.234 10 0 59592 40500.00000 0 8752567.692 -11668569.249 -20900502.253 10 0 59592 41400.00000 0 8941072.230 -9013365.173 -22102024.043 10 0 59592 42300.00000 0 9349229.521 -6260487.847 -22873354.693 10 0 59592 43200.00000 0 9979074.051 -3480785.550 -23199604.452 10 0 59592 44100.00000 0 10819984.767 -744921.325 -23074561.867 10 0 59592 45000.00000 0 11849052.565 1879343.116 -22500804.272 10 0 59592 45900.00000 0 13031982.497 4329732.885 -21489636.341 10 0 59592 46800.00000 0 14324492.168 6551807.908 -20060858.761 10 0 59592 47700.00000 0 15674147.016 8500976.804 -18242372.303 10 0 59592 48600.00000 0 17022554.873 10144094.393 -16069625.665 10 0 59592 49500.00000 0 18307827.321 11460578.155 -13584918.316 10 0 59592 50400.00000 0 19467204.265 12442999.139 -10836572.368 10 0 59592 51300.00000 0 20439731.473 13097124.912 -7877989.833 10 0 59592 52200.00000 0 21168878.805 13441415.018 -4766613.748 10 0 59592 53100.00000 0 21604989.400 13505992.118 -1562813.509 10 0 59592 54000.00000 0 21707457.357 13331133.858 1671283.970 10 0 59592 54900.00000 0 21446542.869 12965350.295 4872994.741 10 0 59592 55800.00000 0 20804748.985 12463128.768 7980286.791 10 0 59592 56700.00000 0 19777702.517 11882441.743 10932974.511 10 0 59592 57600.00000 0 18374502.221 11282122.742 13673876.007 10 0 59592 58500.00000 0 16617519.514 10719220.665 16149911.482 10 0 59592 59400.00000 0 14541659.574 10246443.467 18313122.228 10 0 59592 60300.00000 0 12193112.828 9909798.215 20121591.385 10 0 59592 61200.00000 0 9627647.811 9746526.226 21540249.472 10 0 59592 62100.00000 0 6908515.072 9783419.699 22541549.938 10 0 59592 63000.00000 0 4104047.606 10035590.452 23106002.262 10 0 59592 63900.00000 0 1285055.900 10505742.703 23222552.625 10 0 59592 64800.00000 0 -1477876.041 11183981.092 22888804.843 10 0 59592 65700.00000 0 -4117083.084 12048163.095 22111076.890 10 0 59592 66600.00000 0 -6570389.304 13064782.410 20904291.227 10 0 59592 67500.00000 0 -8783450.603 14190347.891 19291699.963 10 0 59592 68400.00000 0 -10711772.962 15373201.781 17304448.919 10 0 59592 69300.00000 0 -12322322.572 16555702.369 14980987.585 10 0 59592 70200.00000 0 -13594660.787 17676680.529 12366335.087 10 0 59592 71100.00000 0 -14521556.327 18674067.508 9511215.115 10 0 59592 72000.00000 0 -15109048.779 19487583.471 6471075.778 10 0 59592 72900.00000 0 -15375960.549 20061373.082 3305012.924 10 0 59592 73800.00000 0 -15352877.729 20346475.991 74617.755 10 0 59592 74700.00000 0 -15080642.980 20303026.578 -3157228.309 10 0 59592 75600.00000 0 -14608424.584 19902088.380 -6327587.276 10 0 59592 76500.00000 0 -13991444.072 19127043.977 -9374701.603 10 0 59592 77400.00000 0 -13288459.661 17974479.923 -12239209.090 10 0 59592 78300.00000 0 -12559113.296 16454527.901 -14865310.687 10 0 59592 79200.00000 0 -11861254.950 14590646.466 -17201867.270 10 0 59592 80100.00000 0 -11248358.719 12418851.788 -19203402.955 10 0 59592 81000.00000 0 -10767141.114 9986429.233 -20830994.808 10 0 59592 81900.00000 0 -10455483.046 7350179.639 -22053031.342 10 0 59592 82800.00000 0 -10340743.725 4574273.898 -22845825.052 10 0 59592 83700.00000 0 -10438537.711 1727805.672 -23194067.497 10 0 59592 84600.00000 0 -10752026.428 -1117855.425 -23091118.707 10 0 59592 85500.00000 0 -11271753.390 -3891799.755 -22539126.072 10 0 59593 0.00000 0 -11976029.266 -6526288.752 -21548971.392 10 0 59593 900.00000 0 -12831850.086 -8959330.298 -20140047.360 10 0 59593 1800.00000 0 -13796308.082 -11137008.524 -18339870.044 10 0 59593 2700.00000 0 -14818436.276 -13015477.105 -16183533.808 10 0 59593 3600.00000 0 -15841407.618 -14562531.038 -13713021.023 10 0 59593 4500.00000 0 -16804996.060 -15758694.685 -10976379.984 10 0 59593 5400.00000 0 -17648195.645 -16597782.491 -8026787.372 10 0 59593 6300.00000 0 -18311887.385 -17086911.093 -4921513.623 10 0 59593 7200.00000 0 -18741441.754 -17245964.330 -1720811.495 10 0 59593 8100.00000 0 -18889147.555 -17106535.498 1513250.643 10 0 59593 9000.00000 0 -18716365.282 -16710392.830 4717988.265 10 0 59593 9900.00000 0 -18195314.738 -16107533.875 7831309.766 10 0 59593 10800.00000 0 -17310422.005 -15353911.362 10792912.140 10 0 59593 11700.00000 0 -16059169.263 -14508926.543 13545440.612 10 0 59593 12600.00000 0 -14452411.652 -13632795.396 16035590.351 10 0 59593 13500.00000 0 -12514147.390 -12783898.055 18215129.779 10 0 59593 14400.00000 0 -10280749.894 -12016222.283 20041826.550 10 0 59593 15300.00000 0 -7799692.818 -11377007.688 21480259.085 10 0 59593 16200.00000 0 -5127819.610 -10904688.932 22502498.817 10 0 59593 17100.00000 0 -2329227.854 -10627223.764 23088650.569 10 0 59593 18000.00000 0 527145.510 -10560875.807 23227240.927 10 0 59593 18900.00000 0 3370139.703 -10709503.281 22915447.171 10 0 59593 19800.00000 0 6129079.668 -11064384.062 22159161.964 10 0 59593 20700.00000 0 8736468.673 -11604585.286 20972891.828 10 0 59593 21600.00000 0 11130553.478 -12297863.178 19379490.346 10 0 59593 22500.00000 0 13257656.327 -13102056.658 17409729.932 10 0 59593 23400.00000 0 15074177.142 -13966917.447 15101719.088 10 0 59593 24300.00000 0 16548182.605 -14836300.847 12500175.078 10 0 59593 25200.00000 0 17660515.600 -15650625.713 9655564.846 10 0 59593 26100.00000 0 18405378.179 -16349500.229 6623130.044 10 0 59593 27000.00000 0 18790363.247 -16874402.511 3461814.550 10 0 59593 27900.00000 0 18835933.355 -17171302.048 233115.263 10 0 59593 28800.00000 0 18574368.415 -17193110.021 -3000121.015 10 0 59593 29700.00000 0 18048226.946 -16901853.282 -6174930.380 10 0 59593 30600.00000 0 17308386.369 -16270478.328 -9229469.253 10 0 59593 31500.00000 0 16411745.984 -15284207.147 -12104230.896 10 0 59593 32400.00000 0 15418690.876 -13941385.971 -14743216.078 10 0 59593 33300.00000 0 14390425.182 -12253789.569 -17095033.837 10 0 59593 34200.00000 0 13386288.720 -10246367.132 -19113909.837 10 0 59593 35100.00000 0 12461171.451 -7956439.585 -20760582.064 10 0 59593 36000.00000 0 11663135.772 -5432381.546 -22003066.093 10 0 59593 36900.00000 0 11031347.467 -2731843.005 -22817275.063 10 0 59593 37800.00000 0 10594402.596 80414.872 -23187482.679 10 0 59593 38700.00000 0 10369120.478 2934979.417 -23106620.874 10 0 59593 39600.00000 0 10359852.862 5760438.856 -22576407.111 10 0 59593 40500.00000 0 10558337.368 8486117.126 -21607299.734 10 0 59593 41400.00000 0 10944100.184 11044777.575 -20218283.075 10 0 59593 42300.00000 0 11485389.790 13375183.586 -18436487.300 10 0 59593 43200.00000 0 12140601.247 15424410.574 -16296651.062 10 0 59593 44100.00000 0 12860129.984 17149814.352 -13840437.938 10 0 59593 45000.00000 0 13588576.179 18520575.339 -11115620.398 10 0 59593 45900.00000 0 14267206.246 19518756.024 -8175147.481 10 0 59593 46800.00000 0 14836567.360 20139829.432 -5076114.441 10 0 59593 47700.00000 0 15239144.697 20392658.388 -1878654.578 10 0 59593 48600.00000 0 15421949.485 20298928.301 1355225.252 10 0 59593 49500.00000 0 15338929.017 19892058.897 4562842.992 10 0 59593 50400.00000 0 14953097.367 19215641.820 7682050.476 10 0 59593 51300.00000 0 14238297.363 18321470.676 10652430.244 10 0 59593 52200.00000 0 13180519.772 17267246.725 13416457.412 10 0 59593 53100.00000 0 11778724.195 16114056.680 15920604.685 10 0 59593 54000.00000 0 10045126.752 14923728.239 18116369.950 10 0 59593 54900.00000 0 8004941.716 13756173.729 19961207.440 10 0 59593 55800.00000 0 5695586.756 12666832.562 21419345.265 10 0 59593 56700.00000 0 3165383.415 11704318.869 22462474.317 10 0 59593 57600.00000 0 471805.153 10908372.112 23070295.891 10 0 59593 58500.00000 0 -2320656.113 10308195.957 23230917.715 10 0 59593 59400.00000 0 -5142918.343 9921254.672 22941090.845 10 0 59593 60300.00000 0 -7923933.799 9752577.486 22206282.472 10 0 59593 61200.00000 0 -10593402.241 9794600.478 21040582.534 10 0 59593 62100.00000 0 -13084461.733 10027553.301 19466444.935 10 0 59593 63000.00000 0 -15336246.329 10420375.449 17514267.065 10 0 59593 63900.00000 0 -17296204.706 10932124.603 15221814.406 10 0 59593 64800.00000 0 -18922083.410 11513818.738 12633499.986 10 0 59593 65700.00000 0 -20183491.727 12110635.176 9799531.395 10 0 59593 66600.00000 0 -21062982.235 12664374.228 6774941.058 10 0 59593 67500.00000 0 -21556601.220 13116083.303 3618518.055 10 0 59593 68400.00000 0 -21673885.286 13408730.055 391662.122 10 0 59593 69300.00000 0 -21437303.888 13489810.423 -2842817.388 10 0 59593 70200.00000 0 -20881171.161 13313779.770 -6021933.459 10 0 59593 71100.00000 0 -20050073.151 12844202.460 -9083759.204 10 0 59593 72000.00000 0 -18996877.384 12055527.111 -11968646.005 10 0 59593 72900.00000 0 -17780409.691 10934410.566 -14620396.957 10 0 59593 73800.00000 0 -16462897.479 9480532.981 -16987371.575 10 0 59593 74700.00000 0 -15107288.531 7706868.209 -19023499.115 10 0 59593 75600.00000 0 -13774559.568 5639397.028 -20689180.203 10 0 59593 76500.00000 0 -12521128.906 3316274.402 -21952058.840 10 0 59593 77400.00000 0 -11396482.801 786485.384 -22787649.770 10 0 59593 78300.00000 0 -10441115.498 -1891954.337 -23179809.407 10 0 59593 79200.00000 0 -9684869.343 -4654178.047 -23121041.744 10 0 59593 80100.00000 0 -9145743.997 -7430936.755 -22612634.070 10 0 59593 81000.00000 0 -8829223.670 -10151254.172 -21664620.744 10 0 59593 81900.00000 0 -8728149.226 -12745157.581 -20295576.542 10 0 59593 82800.00000 0 -8823139.009 -15146371.166 -18532244.437 10 0 59593 83700.00000 0 -9083539.050 -17294860.390 -16409005.713 10 0 59593 84600.00000 0 -9468861.199 -19139122.423 -13967203.248 10 0 59593 85500.00000 0 -9930647.311 -20638128.300 -11254331.610 10 0 59594 0.00000 0 -10414679.852 -21762837.243 -8323110.267 10 0 59594 900.00000 0 -10863445.236 -22497222.058 -5230456.485 10 0 59594 1800.00000 0 -11218744.933 -22838763.006 -2036382.058 10 0 59594 2700.00000 0 -11424344.862 -22798393.177 1197170.022 10 0 59594 3600.00000 0 -11428550.727 -22399897.624 4407522.548 10 0 59594 4500.00000 0 -11186601.090 -21678793.376 7532473.219 10 0 59594 5400.00000 0 -10662777.516 -20680738.223 10511492.580 10 0 59594 6300.00000 0 -9832143.039 -19459535.569 13286888.104 10 0 59594 7200.00000 0 -8681835.799 -18074819.258 15804912.461 10 0 59594 8100.00000 0 -7211863.209 -16589515.269 18016795.315 10 0 59594 9000.00000 0 -5435362.646 -15067186.049 19879679.607 10 0 59594 9900.00000 0 -3378316.770 -13569368.002 21357444.994 10 0 59594 10800.00000 0 -1078733.878 -12153012.582 22421403.371 10 0 59594 11700.00000 0 1414674.267 -10868137.057 23050853.682 10 0 59594 12600.00000 0 4044264.041 -9755782.369 23233485.597 10 0 59594 13500.00000 0 6745609.451 -8846362.764 22965624.366 10 0 59594 14400.00000 0 9449942.311 -8158475.814 22252311.766 10 0 59594 15300.00000 0 12086783.590 -7698222.598 21107220.867 10 0 59594 16200.00000 0 14586658.269 -7459066.728 19552405.296 10 0 59594 17100.00000 0 16883782.124 -7422238.628 17617886.509 10 0 59594 18000.00000 0 18918609.279 -7557668.815 15341085.745 10 0 59594 18900.00000 0 20640134.719 -7825411.649 12766110.251 10 0 59594 19800.00000 0 22007855.517 -8177500.188 9942906.371 10 0 59594 20700.00000 0 22993308.169 -8560154.366 6926295.072 10 0 59594 21600.00000 0 23581116.995 -8916249.186 3774908.061 10 0 59594 22500.00000 0 23769508.772 -9187938.198 550045.057 10 0 59594 23400.00000 0 23570271.260 -9319320.347 -2685525.099 10 0 59594 24300.00000 0 23008156.905 -9259035.993 -5868795.449 10 0 59594 25200.00000 0 22119756.660 -8962680.512 -8937758.967 10 0 59594 26100.00000 0 20951891.615 -8394931.492 -11832628.205 10 0 59594 27000.00000 0 19559590.840 -7531297.611 -14497011.449 10 0 59594 27900.00000 0 18003741.534 -6359413.426 -16879021.291 10 0 59594 28800.00000 0 16348511.575 -4879823.848 -18932292.920 10 0 59594 29700.00000 0 14658654.090 -3106223.898 -20616891.620 10 0 59594 30600.00000 0 12996808.415 -1065142.630 -21900091.516 10 0 59594 31500.00000 0 11420911.616 1204916.104 -22757010.313 10 0 59594 32400.00000 0 9981829.615 3654840.419 -23171088.122 10 0 59594 33300.00000 0 8721307.146 6226727.684 -23134401.593 10 0 59594 34200.00000 0 7670321.972 8856076.342 -22647808.050 10 0 59594 35100.00000 0 6847911.235 11474260.808 -21720917.669 10 0 59594 36000.00000 0 6260517.700 14011186.344 -20371895.088 10 0 59594 36900.00000 0 5901881.580 16398013.377 -18627095.126 10 0 59594 37800.00000 0 5753480.603 18569838.192 -16520540.372 10 0 59594 38700.00000 0 5785497.902 20468218.945 -14093251.324 10 0 59594 39600.00000 0 5958275.332 22043442.466 -11392442.621 10 0 59594 40500.00000 0 6224189.491 23256438.463 -8470601.276 10 0 59594 41400.00000 0 6529870.182 24080262.471 -5384464.998 10 0 59594 42300.00000 0 6818666.957 24501086.949 -2193920.682 10 0 59594 43200.00000 0 7033259.129 24518660.544 1039155.587 10 0 59594 44100.00000 0 7118298.922 24146217.680 4252094.592 10 0 59594 45000.00000 0 7022976.228 23409843.447 7382643.029 10 0 59594 45900.00000 0 6703396.953 22347321.385 10370162.504 10 0 59594 46800.00000 0 6124674.842 21006513.042 13156795.754 10 0 59594 47700.00000 0 5262648.805 19443337.454 15688578.108 10 0 59594 48600.00000 0 4105153.357 17719435.013 17916473.468 10 0 59594 49500.00000 0 2652788.351 15899612.966 19797315.671 10 0 59594 50400.00000 0 919154.936 14049178.603 21294637.818 10 0 59594 51300.00000 0 -1069453.388 12231270.569 22379374.382 10 0 59594 52200.00000 0 -3274893.363 10504298.606 23030423.166 10 0 59594 53100.00000 0 -5648514.926 8919597.606 23235056.593 10 0 59594 54000.00000 0 -8132950.750 7519392.867 22989174.472 10 0 59594 54900.00000 0 -10664280.069 6335160.774 22297393.031 10 0 59594 55800.00000 0 -13174478.816 5386452.967 21172967.834 10 0 59594 56700.00000 0 -15594055.993 4680232.964 19637551.051 10 0 59594 57600.00000 0 -17854768.046 4210753.132 17720786.518 10 0 59594 58500.00000 0 -19892299.090 3959977.555 15459749.079 10 0 59594 59400.00000 0 -21648795.715 3898533.461 12898237.653 10 0 59594 60300.00000 0 -23075150.484 3987151.635 10085934.499 10 0 59594 61200.00000 0 -24132938.056 4178535.446 7077446.086 10 0 59594 62100.00000 0 -24795922.036 4419579.607 3931243.617 10 0 59594 63000.00000 0 -25051068.319 4653844.556 708523.650 10 0 59594 63900.00000 0 -24899021.324 4824181.043 -2527988.595 10 0 59594 64800.00000 0 -24354022.239 4875392.588 -5715269.238 10 0 59594 65700.00000 0 -23443272.140 4756821.571 -8791234.032 10 0 59594 66600.00000 0 -22205766.592 4424747.640 -11695959.479 10 0 59594 67500.00000 0 -20690651.048 3844495.051 -14372861.662 10 0 59594 68400.00000 0 -18955166.806 2992157.919 -16769808.630 10 0 59594 69300.00000 0 -17062274.846 1855868.841 -18840143.556 10 0 59594 70200.00000 0 -15078058.417 436555.886 -20543598.062 10 0 59594 71100.00000 0 -13069014.410 -1251845.076 -21847077.614 10 0 59594 72000.00000 0 -11099348.014 -3182732.396 -22725303.611 10 0 59594 72900.00000 0 -9228384.474 -5317721.175 -23161300.075 10 0 59594 73800.00000 0 -7508206.417 -7608029.600 -23146716.050 10 0 59594 74700.00000 0 -5981615.208 -9996311.038 -22681978.158 10 0 59594 75600.00000 0 -4680500.684 -12418855.350 -21776271.246 10 0 59594 76500.00000 0 -3624686.080 -14808067.471 -20447348.316 10 0 59594 77400.00000 0 -2821294.774 -17095119.788 -18721174.234 10 0 59594 78300.00000 0 -2264663.313 -19212667.895 -16631410.854 10 0 59594 79200.00000 0 -1936802.263 -21097516.778 -14218754.102 10 0 59594 80100.00000 0 -1808383.465 -22693126.706 -11530136.396 10 0 59594 81000.00000 0 -1840210.242 -23951854.984 -8617810.230 10 0 59594 81900.00000 0 -1985107.079 -24836840.907 -5538330.905 10 0 59594 82800.00000 0 -2190147.853 -25323456.158 -2351458.391 10 0 59594 83700.00000 0 -2399127.776 -25400261.163 881000.365 10 0 59594 84600.00000 0 -2555174.190 -25069428.545 4096386.325 10 0 59594 85500.00000 0 -2603385.864 -24346616.945 7232397.339 10 0 59595 0.00000 0 -2493389.453 -23260301.528 10228287.938 10 0 59595 900.00000 0 -2181705.360 -21850589.068 13026038.763 10 0 59595 1800.00000 0 -1633823.673 -20167569.040 15571469.554 10 0 59595 2700.00000 0 -825902.620 -18269267.603 17815280.379 10 0 59595 3600.00000 0 253981.965 -16219290.879 19713997.731 10 0 59595 4500.00000 0 1605089.142 -14084254.673 21230809.694 10 0 59595 5400.00000 0 3213799.645 -11931106.877 22336274.577 10 0 59595 6300.00000 0 5053947.201 -9824453.006 23008889.991 10 0 59595 7200.00000 0 7087682.248 -7823995.117 23235511.726 10 0 59595 8100.00000 0 9266834.009 -5982189.635 23011614.428 10 0 59595 9000.00000 0 11534716.344 -4342220.659 22341388.748 10 0 59595 9900.00000 0 13828304.175 -2936372.546 21237672.392 10 0 59595 10800.00000 0 16080691.847 -1784869.181 19721715.455 10 0 59595 11700.00000 0 18223732.617 -895228.252 17822783.270 10 0 59595 12600.00000 0 20190750.325 -262157.634 15577603.133 10 0 59595 13500.00000 0 21919210.750 132001.561 13029664.217 10 0 59595 14400.00000 0 23353241.109 316303.607 10228382.991 10 0 59595 15300.00000 0 24445891.775 329739.105 7228149.427 10 0 59595 16200.00000 0 25161044.598 219349.766 4087271.932 10 0 59595 17100.00000 0 25474886.631 37996.937 866841.344 10 0 59595 18000.00000 0 25376886.027 -158121.155 -2370463.514 10 0 59595 18900.00000 0 24870227.922 -312097.324 -5561604.741 10 0 59595 19800.00000 0 23971690.947 -368975.820 -8644423.811 10 0 59595 20700.00000 0 22710968.955 -278330.917 -11558864.036 10 0 59595 21600.00000 0 21129466.237 3347.326 -14248152.007 10 0 59595 22500.00000 0 19278617.085 510562.890 -16659913.715 10 0 59595 23400.00000 0 17217800.858 1267109.294 -18747202.556 10 0 59595 24300.00000 0 15011940.872 2284824.234 -20469418.464 10 0 59595 25200.00000 0 12728888.655 3562857.073 -21793099.959 10 0 59595 26100.00000 0 10436703.991 5087480.913 -22692573.570 10 0 59595 27000.00000 0 8200945.181 6832457.660 -23150448.388 10 0 59595 27900.00000 0 6082082.948 8759941.099 -23157946.677 10 0 59595 28800.00000 0 4133145.938 10821880.097 -22715064.843 10 0 59595 29700.00000 0 2397695.354 12961863.146 -21830562.509 10 0 59595 30600.00000 0 908212.076 15117326.988 -20521780.732 10 0 59595 31500.00000 0 -315037.906 17222036.802 -18814293.712 10 0 59595 32400.00000 0 -1264614.397 19208734.354 -16741401.449 10 0 59595 33300.00000 0 -1945966.847 21011843.607 -14343473.780 10 0 59595 34200.00000 0 -2376950.724 22570120.952 -11667159.022 10 0 59595 35100.00000 0 -2586818.929 23829139.809 -8764472.931 10 0 59595 36000.00000 0 -2614732.627 24743506.345 -5691785.887 10 0 59595 36900.00000 0 -2507855.805 25278714.358 -2508728.179 10 0 59595 37800.00000 0 -2319115.130 25412562.609 722965.323 10 0 59595 38700.00000 0 -2104720.442 25136076.157 3940648.805 10 0 59595 39600.00000 0 -1921550.945 24453893.934 7081974.360 10 0 59595 40500.00000 0 -1824517.532 23384107.078 10086093.022 10 0 59595 41400.00000 0 -1864012.423 21957555.215 12894825.210 10 0 59595 42300.00000 0 -2083553.406 20216610.352 15453778.447 10 0 59595 43200.00000 0 -2517721.698 18213499.032 17713391.584 10 0 59595 44100.00000 0 -3190480.166 16008232.319 19629886.176 10 0 59595 45000.00000 0 -4113942.735 13666229.151 21166107.427 10 0 59595 45900.00000 0 -5287647.223 11255731.032 22292239.328 10 0 59595 46800.00000 0 -6698363.052 8845114.391 22986380.803 10 0 59595 47700.00000 0 -8320443.237 6500211.142 23234972.116 10 0 59595 48600.00000 0 -10116707.678 4281747.574 23033063.409 10 0 59595 49500.00000 0 -12039822.884 2243006.848 22384419.905 10 0 59595 50400.00000 0 -14034122.547 427811.488 21301461.073 10 0 59595 51300.00000 0 -16037795.025 -1131090.856 19805033.982 10 0 59595 52200.00000 0 -17985348.213 -2413171.498 17924023.950 10 0 59595 53100.00000 0 -19810250.178 -3410746.960 15694808.693 10 0 59595 54000.00000 0 -21447636.085 -4129061.176 13160565.145 10 0 59595 54900.00000 0 -22836968.447 -4585820.029 10370441.110 10 0 59595 55800.00000 0 -23924538.935 -4810197.632 7378606.912 10 0 59595 56700.00000 0 -24665706.054 -4841356.171 4243204.832 10 0 59595 57600.00000 0 -25026773.532 -4726541.978 1025216.573 10 0 59595 58500.00000 0 -24986429.036 -4518838.765 -2212728.849 10 0 59595 59400.00000 0 -24536681.219 -4274673.941 -5407582.880 10 0 59595 60300.00000 0 -23683254.330 -4051184.813 -8497115.971 10 0 59595 61200.00000 0 -22445422.684 -3903557.655 -11421141.377 10 0 59595 62100.00000 0 -20855291.257 -3882454.046 -14122699.124 10 0 59595 63000.00000 0 -18956552.358 -4031635.145 -16549175.824 10 0 59595 63900.00000 0 -16802770.758 -4385886.025 -18653337.421 10 0 59595 64800.00000 0 -14455269.671 -4969329.281 -20394254.058 10 0 59595 65700.00000 0 -11980706.800 -5794200.266 -21738098.672 10 0 59595 66600.00000 0 -9448442.676 -6860136.435 -22658803.707 10 0 59595 67500.00000 0 -6927811.830 -8154011.267 -23138563.493 10 0 59595 68400.00000 0 -4485411.087 -9650319.965 -23168173.092 10 0 59595 69300.00000 0 -2182518.143 -11312100.747 -22747197.721 10 0 59595 70200.00000 0 -72747.546 -13092352.880 -21883970.325 10 0 59595 71100.00000 0 1799959.171 -14935891.815 -20595418.173 10 0 59595 72000.00000 0 3402926.719 -16781563.424 -18906722.633 10 0 59595 72900.00000 0 4715858.045 -18564724.421 -16850819.462 10 0 59595 73800.00000 0 5731420.771 -20219885.101 -14467749.844 10 0 59595 74700.00000 0 6455285.765 -21683403.747 -11803875.329 10 0 59595 75600.00000 0 6905618.636 -22896120.166 -8910972.229 10 0 59595 76500.00000 0 7112047.662 -23805818.449 -5845223.300 10 0 59595 77400.00000 0 7114153.461 -24369416.275 -2666126.494 10 0 59595 78300.00000 0 6959545.613 -24554789.679 564657.977 10 0 59595 79200.00000 0 6701608.413 -24342157.487 3784499.986 10 0 59595 80100.00000 0 6397011.582 -23724968.024 6931008.215 10 0 59595 81000.00000 0 6103091.270 -22710251.515 9943232.135 10 0 59595 81900.00000 0 5875211.828 -21318423.726 12762834.510 10 0 59595 82800.00000 0 5764219.386 -19582549.186 15335212.213 10 0 59595 83700.00000 0 5814094.163 -17547094.539 17610544.508 10 0 59595 84600.00000 0 6059900.088 -15266223.479 19544749.379 10 0 59595 85500.00000 0 6526117.774 -12801703.546 21100330.245 99